Hourly Data Report for October 01, 2017

All times are specified in Local Standard Time (LST). Add 1 hour to adjust for Daylight Saving Time where and when it is observed.

FORT NELSON A
BRITISH COLUMBIA

58°50'11.000" N
122°35'49.000" W
381.90 m
1192946
71945
YYE

Download Data

Hourly Data (October 2017)
Hourly Data Report for October 1, 2017
Temp Definition
°C
Dew Point Temp Definition
°C
Rel Hum Definition
%
Wind Dir Definition
10's deg

Wind Spd Definition
km/h
Visibility Definition
km
Stn Press Definition
kPa
Hmdx Definition


Wind Chill Definition


Weather Definition


TIME
00:00 Legend Double Dagger 3.9 1.5 84 32 19 24.1 97.08     LegendNANA
01:00 Legend Double Dagger 3.5 0.6 82 32 15 24.1 97.19     Cloudy
02:00 Legend Double Dagger 3.0 0.3 82 32 15 8.1 97.29     Fog
03:00 Legend Double Dagger 2.3 0.9 91 28 11 24.1 97.41     Rain
04:00 Legend Double Dagger 2.0 0.8 91 30 13 24.1 97.54     Rain
05:00 Legend Double Dagger 2.0 0.8 92 29 14 19.3 97.62     Rain
06:00 Legend Double Dagger 1.9 0.6 91 29 15 24.1 97.72     Rain
07:00 Legend Double Dagger 1.9 0.4 89 30 13 16.1 97.85     Mostly Cloudy
08:00 Legend Double Dagger 2.1 0.2 87 29 12 16.1 97.96     LegendNANA
09:00 Legend Double Dagger 2.7 -1.7 73 31 17 24.1 98.07     LegendNANA
10:00 Legend Double Dagger 3.8 -2.4 64 32 11 32.2 98.16     Mostly Cloudy
11:00 Legend Double Dagger 3.6 -4.1 57 29 22 24.1 98.22     LegendNANA
12:00 Legend Double Dagger 4.5 -3.4 56 30 17 32.2 98.26     LegendNANA
13:00 Legend Double Dagger 4.5 -4.0 54 29 19 32.2 98.30     Mainly Clear
14:00 Legend Double Dagger 5.7 -4.4 48 28 14 32.2 98.33     LegendNANA
15:00 Legend Double Dagger 6.1 -3.1 52 29 10 48.3 98.36     LegendNANA
16:00 Legend Double Dagger 6.2 -4.0 48 27 10 48.3 98.39     Clear
17:00 Legend Double Dagger 5.7 -3.4 52 30 5 32.2 98.41     LegendNANA
18:00 Legend Double Dagger 2.7 -2.5 68 27 3 32.2 98.47     LegendNANA
19:00 Legend Double Dagger 0.0 -2.9 80 27 5 24.1 98.53   -2 Clear
20:00 Legend Double Dagger -1.6 -3.7 86 25 5 24.1 98.58   -3 LegendNANA
21:00 Legend Double Dagger -1.9 -3.6 88 36 1 24.1 98.61   -2 LegendNANA
22:00 Legend Double Dagger -2.2 -3.8 89 20 3 24.1 98.61   -3 Clear
23:00 Legend Double Dagger -2.2 -4.0 88 36 3 24.1 98.63   -3 LegendNANA

Notes on Data Quality.

Legend

  • E = Estimated
  • M = Missing
  • NA = Not Available
  • ‡ = Partner data that is not subject to review by the National Climate Archives
Date modified: